Weather in Nedashky

Ukraine / Zhytomyr Region     50°58′32″N   29°14′02″E
temp.,
°C
wind,
m/s
gust,
m/s
humid.,
%
clouds,
%
prec.,
mm/h
press.,
hPa
HPBL,
m
27 february, sat
sat2723:00+6nw41087100 0.0 1018454
02:00+4wnw41186100 0.0 1018473
05:00+3wnw51288100 0.0 1017672
08:00+3wnw51080100 0.0 1018659
11:00+4wnw61080100 0.0 1018870
14:00+3wnw6109498 0.1 1018698
17:00+3nw61188100 0.2 1019770
20:00+2nnw61090100 0.3 1021748
28 february, sun
sun2823:00+1nnw61096100 0.3 1021598
02:000nw499489 0.3 1023435
05:000nnw599491 0.1 1024574
08:000nw588895 0.2 1025669
11:00+1nw5877100 0.1 1025863
14:00+2nw5873100 0.2 10251011
17:00+2wnw4975100 0.0 1024697
20:00+1wnw51097100 0.7 1024557
1 march, mon
mon123:00+2nnw3898100 2.6 1023437
02:00+2nne3698100 3.6 1024318
05:00+2n4897100 0.1 1026444
08:00+2nnw4794100 0.3 1028426
11:00+2nnw358597 0.1 1030545
14:00+4nw467598 0.1 1030819
17:00+4nw477795 0.0 1029634
20:00+3w378497 0.0 1030258
2 march, tue
tue223:00+3wnw4992100 0.0 1030287
02:00+2w51194100 0.0 1029287
05:00+2w61389100 0.0 1027375
08:00+3wnw61584100 0.0 1026492
11:00+6wnw71271100 0.0 1026755
14:00+8nw7117078 0.0 1025774
17:00+7nw6127615 0.0 1024678
20:00+4nw514877 0.0 1025496
3 march, wed
wed323:00+3nw512910 0.0 1026396
02:00+2nw410940 0.0 1026290
05:00+1nw49967 0.0 1027236
08:00+1nw389535 0.0 1027295
11:00+5nw467322 0.0 1028668
14:00+8nw465711 0.0 1027872
17:00+6nnw24640 0.0 1026123
20:00+3nnw12740 0.0 102722